Hourly Data Report for June 05, 2021

WESTERN HEAD
NOVA SCOTIA
Current Station Operator: ECCC - MSC

43°59'24.070" N
64°39'51.008" W
10.10 m
8206240
71411
WWE

Download Data

Hourly Data (June 2021)
Hourly Data Report for June 5, 2021
TIME
LST
Temp Definition
°C
Dew Point Definition
°C
Rel Hum Definition
%
Precip. Amount Definition
mm

Wind Dir Definition
10's deg

Wind Spd Definition
km/h
Visibility Definition
km
Stn Press Definition
kPa
Hmdx Definition


Wind Chill Definition


Weather Definition


00:00 8.9 LegendMM LegendMM 0.0 25 7   100.99     LegendNANA
01:00 8.9 8.9 100 0.0 27 6   100.99     LegendNANA
02:00 9.1 9.1 100 0.0 22 4   100.96     LegendNANA
03:00 9.2 9.2 100 0.0 23 6   100.95     LegendNANA
04:00 8.4 8.4 100 0.0 22 7   100.94     LegendNANA
05:00 8.4 8.4 100 0.0 21 13   100.94     LegendNANA
06:00 9.2 9.2 100 0.0 22 14   100.98     LegendNANA
07:00 10.1 10.1 100 0.0 23 11   100.99     LegendNANA
08:00 9.9 9.9 100 0.2 20 8   101.00     LegendNANA
09:00 10.4 10.4 100 0.0 22 13   100.94     LegendNANA
10:00 11.6 11.6 100 0.0 21 13   100.92     LegendNANA
11:00 12.6 12.6 100 0.0 22 13   100.93     LegendNANA
12:00 12.3 LegendMM LegendMM 0.0 20 23   100.91     LegendNANA
13:00 12.9 LegendMM LegendMM 0.0 20 26   100.88     LegendNANA
14:00 13.9 13.3 96 0.0 20 23   100.82     LegendNANA
15:00 12.1 12.1 100 0.0 20 31   100.79     LegendNANA
16:00 11.5 11.5 100 0.0 20 23   100.77     LegendNANA
17:00 11.9 11.9 100 0.0 20 25   100.75     LegendNANA
18:00 10.4 10.4 100 0.0 24 15   100.76     LegendNANA
19:00 9.3 9.3 100 0.0 23 12   100.76     LegendNANA
20:00 8.6 LegendMM LegendMM 0.0 21 15   100.78     LegendNANA
21:00 8.0 LegendMM LegendMM 0.0 21 12   100.81     LegendNANA
22:00 8.6 LegendMM LegendMM 0.0 20 20   100.80     LegendNANA
23:00 8.7 LegendMM LegendMM 0.0 20 21   100.77     LegendNANA

Notes on Data Quality.

Legend

  • E = Estimated
  • M = Missing
  • NA = Not Available*
  • [empty] = Indicates an unobserved value
Date modified: